FW6754 Weather Reports


time (UTC)temp
C
wind
direction
speed
KPH
gust
KPH
rain 1hr
cm
rain 24hr
cm
rain mn
cm
humidity
%
barometer
mb
20260507161911 21 0.0 0.0 0.00 0.00 0.00 10 1014.8
20260507160911 21 0.0 0.0 0.00 0.00 0.00 10 1014.9
20260507160411 21 0.0 0.0 0.00 0.00 0.00 10 1014.9
20260507155912 21 0.0 0.0 0.00 0.00 0.00 10 1014.9
20260507154912 22 0.0 0.0 0.00 0.00 0.00 10 1014.9
20260507154412 21 0.0 0.0 0.00 0.00 0.00 10 1015.0
20260507153912 22 0.0 0.0 0.00 0.00 0.00 10 1014.9
20260507153411 23 0.0 0.0 0.00 0.00 0.00 10 1014.7
20260507152412 24 0.0 0.0 0.00 0.00 0.00 10 1014.9
20260507151912 25 0.0 0.0 0.00 0.00 0.00 10 1015.0
20260507151411 28 0.0 0.0 0.00 0.00 0.00 10 1014.6
20260507150912 30 0.0 0.0 0.00 0.00 0.00 10 1014.5
20260507150412 31 0.0 0.0 0.00 0.00 0.00 10 1014.4
20260507145912 31 0.0 0.0 0.00 0.00 0.00 10 1014.5
20260507145411 31 0.0 0.0 0.00 0.00 0.00 10 1014.6
20260507144911 30 0.0 0.0 0.00 0.00 0.00 10 1014.6
20260507143912 30 0.0 0.0 0.00 0.00 0.00 10 1014.6
20260507143412 28 0.0 0.0 0.00 0.00 0.00 10 1014.8
20260507142912 28 0.0 0.0 0.00 0.00 0.00 10 1015.0
20260507142412 25 0.0 0.0 0.00 0.00 0.00 10 1015.2
20260507141912 22 0.0 0.0 0.00 0.00 0.00 10 1015.6
20260507141412 26 0.0 0.0 0.00 0.00 0.00 10 1015.3
20260507140912 31 0.0 0.0 0.00 0.00 0.00 10 1014.9
20260507140412 30 0.0 0.0 0.00 0.00 0.00 10 1015.0
20260507135912 30 0.0 0.0 0.00 0.00 0.00 10 1015.0
20260507135412 29 0.0 0.0 0.00 0.00 0.00 10 1015.1
20260507134912 26 0.0 0.0 0.00 0.00 0.00 10 1015.4
20260507134411 22 0.0 0.0 0.00 0.00 0.00 10 1015.8
20260507133912 20 0.0 0.0 0.00 0.00 0.00 10 1016.1
20260507133412 20 0.0 0.0 0.00 0.00 0.00 10 1016.2
20260507132912 20 0.0 0.0 0.00 0.00 0.00 10 1016.0
20260507132412 20 0.0 0.0 0.00 0.00 0.00 10 1016.2
20260507131912 20 0.0 0.0 0.00 0.00 0.00 10 1016.1
20260507131412 20 0.0 0.0 0.00 0.00 0.00 10 1016.3
20260507130913 18 0.0 0.0 0.00 0.00 0.00 10 1016.4
20260507130412 18 0.0 0.0 0.00 0.00 0.00 10 1016.5
20260507125911 18 0.0 0.0 0.00 0.00 0.00 10 1016.6
20260507125411 20 0.0 0.0 0.00 0.00 0.00 10 1016.5
20260507124912 22 0.0 0.0 0.00 0.00 0.00 10 1016.3
20260507124411 22 0.0 0.0 0.00 0.00 0.00 10 1016.2
20260507122911 25 0.0 0.0 0.00 0.00 0.00 10 1016.0
20260507122411 27 0.0 0.0 0.00 0.00 0.00 10 1015.9
20260507121911 27 0.0 0.0 0.00 0.00 0.00 10 1015.8
20260507121411 26 0.0 0.0 0.00 0.00 0.00 10 1015.9
20260507120912 25 0.0 0.0 0.00 0.00 0.00 10 1016.2
20260507120412 23 0.0 0.0 0.00 0.00 0.00 10 1016.3
20260507115912 18 0.0 0.0 0.00 0.00 0.00 10 1016.8
20260507115411 17 0.0 0.0 0.00 0.00 0.00 10 1016.9
20260507114912 17 0.0 0.0 0.00 0.00 0.00 10 1017.0
20260507114412 17 0.0 0.0 0.00 0.00 0.00 10 1017.1
20260507113911 17 0.0 0.0 0.00 0.00 0.00 10 1017.2
20260507113411 17 0.0 0.0 0.00 0.00 0.00 10 1017.2
20260507112912 17 0.0 0.0 0.00 0.00 0.00 10 1017.3
20260507112412 16 0.0 0.0 0.00 0.00 0.00 10 1017.4
20260507111911 15 0.0 0.0 0.00 0.00 0.00 10 1017.5
20260507111411 15 0.0 0.0 0.00 0.00 0.00 10 1017.7
20260507110912 16 0.0 0.0 0.00 0.00 0.00 10 1017.5
20260507110412 15 0.0 0.0 0.00 0.00 0.00 10 1017.7
20260507105912 16 0.0 0.0 0.00 0.00 0.00 10 1017.6
20260507105412 17 0.0 0.0 0.00 0.00 0.00 10 1017.6
20260507104912 17 0.0 0.0 0.00 0.00 0.00 10 1017.6
20260507103912 17 0.0 0.0 0.00 0.00 0.00 10 1017.7
20260507103412 16 0.0 0.0 0.00 0.00 0.00 10 1017.9
20260507102412 15 0.0 0.0 0.00 0.00 0.00 10 1018.1
20260507101912 14 0.0 0.0 0.00 0.00 0.00 10 1018.1
20260507101411 14 0.0 0.0 0.00 0.00 0.00 10 1018.2
20260507100912 15 0.0 0.0 0.00 0.00 0.00 10 1018.1
20260507100412 15 0.0 0.0 0.00 0.00 0.00 10 1018.1
20260507095911 14 0.0 0.0 0.00 0.00 0.00 10 1018.1
20260507094911 15 0.0 0.0 0.00 0.00 0.00 10 1018.2
20260507094412 15 0.0 0.0 0.00 0.00 0.00 10 1018.2
20260507093912 15 0.0 0.0 0.00 0.00 0.00 10 1018.1
20260507093413 14 0.0 0.0 0.00 0.00 0.00 10 1018.1
20260507092911 14 0.0 0.0 0.00 0.00 0.00 10 1018.1
20260507091911 13 0.0 0.0 0.00 0.00 0.00 10 1018.1
20260507091412 12 0.0 0.0 0.00 0.00 0.00 10 1018.2
20260507090911 12 0.0 0.0 0.00 0.00 0.00 10 1018.1
20260507090411 13 0.0 0.0 0.00 0.00 0.00 10 1018.0
20260507085911 13 0.0 0.0 0.00 0.00 0.00 10 1018.1
20260507085411 13 0.0 0.0 0.00 0.00 0.00 10 1018.1
20260507084911 13 0.0 0.0 0.00 0.00 0.00 10 1018.1
20260507083911 12 0.0 0.0 0.00 0.00 0.00 10 1017.9
20260507082911 11 0.0 0.0 0.00 0.00 0.00 10 1018.0
20260507082411 12 0.0 0.0 0.00 0.00 0.00 10 1018.0
20260507081412 12 0.0 0.0 0.00 0.00 0.00 10 1017.9
20260507080912 12 0.0 0.0 0.00 0.00 0.00 10 1017.9
20260507080412 12 0.0 0.0 0.00 0.00 0.00 10 1018.0
20260507075912 12 0.0 0.0 0.00 0.00 0.00 10 1018.0
20260507075412 11 0.0 0.0 0.00 0.00 0.00 10 1018.1
20260507074912 11 0.0 0.0 0.00 0.00 0.00 10 1018.0
20260507074412 11 0.0 0.0 0.00 0.00 0.00 10 1018.0
20260507073911 11 0.0 0.0 0.00 0.00 0.00 10 1018.0
20260507072912 11 0.0 0.0 0.00 0.00 0.00 10 1018.0
20260507071912 10 0.0 0.0 0.00 0.00 0.00 10 1017.9
20260507071412 10 0.0 0.0 0.00 0.00 0.00 10 1018.0
20260507070912 10 0.0 0.0 0.00 0.00 0.00 10 1018.0
20260507070412 10 0.0 0.0 0.00 0.00 0.00 10 1017.9
20260507065912 10 0.0 0.0 0.00 0.00 0.00 10 1017.9
20260507065411 9 0.0 0.0 0.00 0.00 0.00 10 1018.0
20260507064912 9 0.0 0.0 0.00 0.00 0.00 10 1017.9
20260507064412 9 0.0 0.0 0.00 0.00 0.00 10 1017.8
20260507063912 9 0.0 0.0 0.00 0.00 0.00 10 1017.8
20260507063413 8 0.0 0.0 0.00 0.00 0.00 10 1017.9
20260507062912 8 0.0 0.0 0.00 0.00 0.00 10 1017.9
20260507062412 8 0.0 0.0 0.00 0.00 0.00 10 1017.9
20260507061911 8 0.0 0.0 0.00 0.00 0.00 10 1017.9
20260507061412 7 0.0 0.0 0.00 0.00 0.00 10 1017.9
20260507060913 7 0.0 0.0 0.00 0.00 0.00 10 1017.9
20260507060412 6 0.0 0.0 0.00 0.00 0.00 10 1018.0
20260507055912 6 0.0 0.0 0.00 0.00 0.00 10 1018.0
20260507055412 6 0.0 0.0 0.00 0.00 0.00 10 1018.0
20260507054913 5 0.0 0.0 0.00 0.00 0.00 10 1018.0
20260507054412 5 0.0 0.0 0.00 0.00 0.00 10 1018.0
20260507053912 5 0.0 0.0 0.00 0.00 0.00 10 1017.9
20260507053412 5 0.0 0.0 0.00 0.00 0.00 10 1018.0
20260507052911 5 0.0 0.0 0.00 0.00 0.00 10 1017.9
20260507052411 4 0.0 0.0 0.00 0.00 0.00 10 1018.0
20260507051412 4 0.0 0.0 0.00 0.00 0.00 10 1017.8
20260507050911 3 0.0 0.0 0.00 0.00 0.00 10 1017.8
20260507050411 3 0.0 0.0 0.00 0.00 0.00 10 1017.8
20260507045911 3 0.0 0.0 0.00 0.00 0.00 10 1017.8
20260507045411 3 0.0 0.0 0.00 0.00 0.00 10 1017.8
20260507044912 3 0.0 0.0 0.00 0.00 0.00 10 1017.7
20260507044412 3 0.0 0.0 0.00 0.00 0.00 10 1017.7
20260507043912 3 0.0 0.0 0.00 0.00 0.00 10 1017.6
20260507043411 3 0.0 0.0 0.00 0.00 0.00 10 1017.6
20260507042412 3 0.0 0.0 0.00 0.00 0.00 10 1017.6
20260507041912 4 0.0 0.0 0.00 0.00 0.00 10 1017.6
20260507040911 4 0.0 0.0 0.00 0.00 0.00 10 1017.6
20260507035911 4 0.0 0.0 0.00 0.00 0.00 10 1017.6
20260507035412 4 0.0 0.0 0.00 0.00 0.00 10 1017.6
20260507034912 4 0.0 0.0 0.00 0.00 0.00 10 1017.5
20260507034412 5 0.0 0.0 0.00 0.00 0.00 10 1017.4
20260507033912 5 0.0 0.0 0.00 0.00 0.00 10 1017.3
20260507033412 5 0.0 0.0 0.00 0.00 0.00 10 1017.4
20260507032911 5 0.0 0.0 0.00 0.00 0.00 10 1017.2
20260507032412 5 0.0 0.0 0.00 0.00 0.00 10 1017.3
20260507031911 5 0.0 0.0 0.00 0.00 0.00 10 1017.3
20260507031411 5 0.0 0.0 0.00 0.00 0.00 10 1017.3
20260507030911 5 0.0 0.0 0.00 0.00 0.00 10 1017.2
20260507025912 5 0.0 0.0 0.00 0.00 0.00 10 1017.2
20260507025412 5 0.0 0.0 0.00 0.00 0.00 10 1017.2
20260507024913 5 0.0 0.0 0.00 0.00 0.00 10 1017.3
20260507024412 5 0.0 0.0 0.00 0.00 0.00 10 1017.3
20260507023911 5 0.0 0.0 0.00 0.00 0.00 10 1017.2
20260507023411 5 0.0 0.0 0.00 0.00 0.00 10 1017.3
20260507022412 5 0.0 0.0 0.00 0.00 0.00 10 1017.3
20260507021911 5 0.0 0.0 0.00 0.00 0.00 10 1017.3
20260507021411 5 0.0 0.0 0.00 0.00 0.00 10 1017.2
20260507020912 5 0.0 0.0 0.00 0.00 0.00 10 1017.2
20260507020412 5 0.0 0.0 0.00 0.00 0.00 10 1017.2
20260507015912 5 0.0 0.0 0.00 0.00 0.00 10 1017.1
20260507015413 5 0.0 0.0 0.00 0.00 0.00 10 1017.0
20260507014912 5 0.0 0.0 0.00 0.00 0.00 10 1017.0
20260507014411 5 0.0 0.0 0.00 0.00 0.00 10 1016.9
20260507013911 5 0.0 0.0 0.00 0.00 0.00 10 1017.0
20260507013411 5 0.0 0.0 0.00 0.00 0.00 10 1017.0
20260507012911 5 0.0 0.0 0.00 0.00 0.00 10 1017.0
20260507012412 5 0.0 0.0 0.00 0.00 0.00 10 1017.0
20260507011412 4 0.0 0.0 0.00 0.00 0.00 10 1017.0
20260507010912 4 0.0 0.0 0.00 0.00 0.00 10 1017.0
20260507010411 4 0.0 0.0 0.00 0.00 0.00 10 1017.0
20260507005912 4 0.0 0.0 0.00 0.00 0.00 10 1017.0
20260507005412 5 0.0 0.0 0.00 0.00 0.00 10 1016.9
20260507004912 5 0.0 0.0 0.00 0.00 0.00 10 1017.0
20260507004411 5 0.0 0.0 0.00 0.00 0.00 10 1016.9
20260507003912 5 0.0 0.0 0.00 0.00 0.00 10 1017.0
20260507003412 5 0.0 0.0 0.00 0.00 0.00 10 1017.0
20260507002912 5 0.0 0.0 0.00 0.00 0.00 10 1016.9
20260507002412 5 0.0 0.0 0.00 0.00 0.00 10 1016.9
20260507001912 5 0.0 0.0 0.00 0.00 0.00 10 1017.0
20260507000912 5 0.0 0.0 0.00 0.00 0.00 10 1017.0
20260507000413 5 0.0 0.0 0.00 0.00 0.00 10 1016.9
20260506235912 5 0.0 0.0 0.00 0.00 0.00 10 1016.9
20260506235412 5 0.0 0.0 0.00 0.00 0.00 10 1016.9
20260506234912 5 0.0 0.0 0.00 0.00 0.00 10 1017.0
20260506234412 5 0.0 0.0 0.00 0.00 0.00 10 1016.9
20260506232911 6 0.0 0.0 0.00 0.00 0.00 10 1017.0
20260506232412 6 0.0 0.0 0.00 0.00 0.00 10 1016.9
20260506231412 6 0.0 0.0 0.00 0.00 0.00 10 1016.8
20260506230911 6 0.0 0.0 0.00 0.00 0.00 10 1016.8
20260506230411 6 0.0 0.0 0.00 0.00 0.00 10 1016.8
20260506225411 6 0.0 0.0 0.00 0.00 0.00 10 1016.6
20260506224411 6 0.0 0.0 0.00 0.00 0.00 10 1016.6
20260506223912 6 0.0 0.0 0.00 0.00 0.00 10 1016.5
20260506223411 6 0.0 0.0 0.00 0.00 0.00 10 1016.5
20260506222911 6 0.0 0.0 0.00 0.00 0.00 10 1016.5
20260506221911 7 0.0 0.0 0.00 0.00 0.00 10 1016.4
20260506221411 7 0.0 0.0 0.00 0.00 0.00 10 1016.4
20260506220912 7 0.0 0.0 0.00 0.00 0.00 10 1016.3
20260506220413 7 0.0 0.0 0.00 0.00 0.00 10 1016.3
20260506215911 7 0.0 0.0 0.00 0.00 0.00 10 1016.3
20260506215411 7 0.0 0.0 0.00 0.00 0.00 10 1016.2
20260506214912 7 0.0 0.0 0.00 0.00 0.00 10 1016.2
20260506214412 7 0.0 0.0 0.00 0.00 0.00 10 1016.1
20260506213912 7 0.0 0.0 0.00 0.00 0.00 10 1016.1
20260506213412 8 0.0 0.0 0.00 0.00 0.00 10 1016.1
20260506212912 8 0.0 0.0 0.00 0.00 0.00 10 1016.0
20260506212412 8 0.0 0.0 0.00 0.00 0.00 10 1015.9
20260506211911 8 0.0 0.0 0.00 0.00 0.00 10 1015.9
20260506211411 8 0.0 0.0 0.00 0.00 0.00 10 1015.8
20260506210412 9 0.0 0.0 0.00 0.00 0.00 10 1015.8
20260506205912 9 0.0 0.0 0.00 0.00 0.00 10 1015.8
20260506205412 10 0.0 0.0 0.00 0.00 0.00 10 1015.6
20260506204912 10 0.0 0.0 0.00 0.00 0.00 10 1015.6
20260506204411 10 0.0 0.0 0.00 0.00 0.00 10 1015.4
20260506203912 10 0.0 0.0 0.00 0.00 0.00 10 1015.4
20260506203412 10 0.0 0.0 0.00 0.00 0.00 10 1015.3
20260506202411 10 0.0 0.0 0.00 0.00 0.00 10 1015.3
20260506201911 10 0.0 0.0 0.00 0.00 0.00 10 1015.2
20260506201411 10 0.0 0.0 0.00 0.00 0.00 10 1015.2
20260506200912 10 0.0 0.0 0.00 0.00 0.00 10 1015.0
20260506200412 10 0.0 0.0 0.00 0.00 0.00 10 1015.0
20260506195913 10 0.0 0.0 0.00 0.00 0.00 10 1015.0
20260506195411 10 0.0 0.0 0.00 0.00 0.00 10 1014.9
20260506194413 10 0.0 0.0 0.00 0.00 0.00 10 1014.8
20260506193912 10 0.0 0.0 0.00 0.00 0.00 10 1014.7
20260506193411 10 0.0 0.0 0.00 0.00 0.00 10 1014.6
20260506192912 10 0.0 0.0 0.00 0.00 0.00 10 1014.5
20260506192412 10 0.0 0.0 0.00 0.00 0.00 10 1014.4
20260506191912 10 0.0 0.0 0.00 0.00 0.00 10 1014.4
20260506191411 10 0.0 0.0 0.00 0.00 0.00 10 1014.3
20260506190911 10 0.0 0.0 0.00 0.00 0.00 10 1014.3
20260506190411 11 0.0 0.0 0.00 0.00 0.00 10 1014.1
20260506185912 11 0.0 0.0 0.00 0.00 0.00 10 1014.1
20260506184412 12 0.0 0.0 0.00 0.00 0.00 10 1013.9
20260506182911 13 0.0 0.0 0.00 0.00 0.00 10 1013.6
20260506182411 13 0.0 0.0 0.00 0.00 0.00 10 1013.6
20260506181412 14 0.0 0.0 0.00 0.00 0.00 10 1013.4
20260506180912 14 0.0 0.0 0.00 0.00 0.00 10 1013.4
20260506180412 15 0.0 0.0 0.00 0.00 0.00 10 1013.3
20260506175412 15 0.0 0.0 0.00 0.00 0.00 10 1013.0
20260506174912 15 0.0 0.0 0.00 0.00 0.00 10 1013.0
20260506173912 15 0.0 0.0 0.00 0.00 0.00 10 1013.0
20260506173412 16 0.0 0.0 0.00 0.00 0.00 10 1012.9
20260506172911 16 0.0 0.0 0.00 0.00 0.00 10 1012.9
20260506172411 15 0.0 0.0 0.00 0.00 0.00 10 1012.9
20260506171411 16 0.0 0.0 0.00 0.00 0.00 10 1012.9
20260506170412 17 0.0 0.0 0.00 0.00 0.00 10 1012.9
20260506165912 17 0.0 0.0 0.00 0.00 0.00 10 1012.8
20260506165412 16 0.0 0.0 0.00 0.00 0.00 10 1012.9
20260506164912 17 0.0 0.0 0.00 0.00 0.00 10 1012.9
20260506164412 17 0.0 0.0 0.00 0.00 0.00 10 1012.9
20260506163912 17 0.0 0.0 0.00 0.00 0.00 10 1012.9
20260506163412 16 0.0 0.0 0.00 0.00 0.00 10 1012.9
20260506162411 14 0.0 0.0 0.00 0.00 0.00 10 1013.0